Home   Weather   Byron Bay   Past weeks
Flag for Australia

Past Weather in Byron Bay, New South Wales, Australia — June 2019

Now
49 °F

Cool.


Feels Like: 49 °F
Forecast: 71 / 58 °F
Wind: No wind

Location: Ballina Airport Aws

Current Time: Aug 26, 2019 at 6:36:44 am

Latest Report: Aug 26, 2019 at 5:00 am


Visibility: N/A

Pressure: 30.05 "Hg

Humidity: 92%

Dew Point: 46 °F

Location of Byron BayLocation

June 2019 Weather in Byron Bay — Graph

°F

High & Low Weather Summary for June 2019

 TemperatureHumidityPressure
High75 °F (Jun 13, 11:00 am)100% (Jun 13, 8:00 am)30.50 "Hg (Jun 13, 8:00 am)
Low40 °F (Jun 1, 3:00 am)39% (Jun 4, 2:00 pm)29.81 "Hg (Jun 4, 2:00 pm)
Average60 °F83%30.19 "Hg
* Reported Jun 1 12:00 am — Jun 30 11:00 pm, Byron Bay. Weather by CustomWeather, © 2019

Note: Actual official high and low records may vary slightly from our data, if they occured in-between our weather recording intervals... More about our weather records

Advertising

Byron Bay Weather History for June 1, 2019

Scroll right to see more
 ConditionsComfort  
Time TempWeatherWind HumidityBarometerVisibility
12:00 am
Sat, Jun 1
43 °FQuite cool.No wind94%30.22 "HgN/A
2:00 am41 °FQuite cool.No wind94%30.21 "HgN/A
3:00 am40 °FQuite cool.No wind91%30.20 "HgN/A
5:00 am42 °FQuite cool.3 mph78%30.21 "HgN/A
6:00 am41 °FQuite cool.2 mph87%30.23 "HgN/A
8:00 am53 °FCool.9 mph65%30.27 "HgN/A
9:00 am60 °FRefreshingly cool.12 mph51%30.27 "HgN/A
11:00 am65 °FMild.14 mph51%30.24 "HgN/A
12:00 pm67 °FOvercast.10 mph56%30.23 "HgN/A
2:00 pm68 °FMild.13 mph76%30.21 "HgN/A
3:00 pm66 °FOvercast.12 mph83%30.21 "HgN/A
5:00 pm62 °FCool.13 mph91%30.23 "HgN/A
6:00 pm62 °FOvercast.9 mph92%30.25 "HgN/A
8:00 pm60 °FCool.9 mph94%30.27 "HgN/A
9:00 pm60 °FFog.8 mph94%30.28 "Hg1 mi
11:00 pm60 °FCool.9 mph96%30.27 "HgN/A
Weather by CustomWeather, © 2019

See weather overview